CAPE
507 465 221 118 271 159 107 117 171 247 187 282 312 336 291 406 493 504 566 550 515 319 265 256 546 551 513 394 323 292 58 144 75 59 261 492 521 678 579 680 1070 1439 2101 2309
422 317 273 167 232 272 150 196 306 188 204 274 256 295 317 489 590 500 534 544 566 416 250 173 487 629 792 772 514 694 151 241 410 209 416 275 354 311 617 1075 1405 1975 2154 2415
406 312 265 346 303 396 256 415 344 369 348 416 533 449 387 410 563 611 553 560 640 614 445 345 376 569 647 842 936 720 1165 473 689 470 370 568 920 1282 1252 1459 1751 1941 2139 2141
208 381 378 327 266 249 201 466 331 126 159 255 560 278 325 403 549 684 711 702 692 758 684 603 565 664 712 713 821 1071 1640 1917 1356 1517 965 2023 734 596 292 843 2356 2547 2200 2353
785 363 482 518 536 385 520 416 486 255 209 369 297 360 137 616 12 290 721 766 812 828 862 772 694 727 734 716 662 774 1231 1698 2359 1788 1679 961 1086 588 797 1723 1679 926 1040 802
599 551 537 617 571 618 585 632 396 216 51 68 15 40 61 0 64 104 261 505 893 1001 982 951 940 917 822 550 422 516 1300 1737 1950 2257 1700 2453 2506 1436 2341 1529 877 957 849 644
313 460 549 604 682 695 711 373 84 10 13 1 0 0 3 0 66 269 446 659 834 1127 1295 1312 1258 1214 982 840 572 552 766 1212 1423 1331 1777 1812 2106 1949 1567 1217 727 644 449 296
112 280 549 692 619 407 360 353 36 11 1 0 39 0 1 1 196 509 771 933 1193 1296 1264 1461 1361 1464 1241 923 761 739 945 1207 982 642 1413 1913 1243 738 472 319 241 287 174 91
59 13 445 625 579 540 459 175 59 0 0 0 0 0 0 3 0 31 327 760 1038 1364 1348 1469 1475 1332 1413 964 936 1063 1055 1278 1133 1439 1553 828 508 192 166 87 88 46 14 10
99 16 5 137 262 196 196 69 6 5 0 0 0 0 0 0 0 0 0 115 819 1388 1357 1407 1366 1313 1295 1440 1415 962 1066 947 1271 1194 422 91 87 117 86 80 99 79 86 9
0 0 0 3 41 0 9 2 0 0 0 0 0 0 0 0 0 0 0 90 691 1275 1281 1212 1235 1221 1222 1038 1394 1707 1524 1516 1852 646 169 72 97 165 155 232 107 99 37 28
0 0 0 0 0 0 0 0 0 0 0 0 0 0 0 0 0 0 0 264 1105 1454 1079 998 1088 1328 1307 1096 1032 1388 1630 1751 1278 978 372 277 231 274 271 357 193 183 87 41
0 0 0 0 0 0 0 0 0 0 0 0 0 0 0 0 0 0 0 398 1516 1263 984 979 1080 1246 1341 1158 1388 1414 1088 1146 1122 1063 720 389 320 325 437 437 140 94 268 328
0 0 0 0 0 0 0 0 0 0 0 0 0 0 0 0 0 0 214 307 1348 1142 1009 1199 983 918 896 1129 1214 1362 1407 1266 1032 883 678 586 601 630 497 165 232 338 255 110
0 0 0 0 0 0 0 0 0 0 0 0 0 0 0 0 19 434 693 961 1436 891 1314 1328 1239 1071 804 1104 1292 1736 1436 1425 1237 1260 1216 1193 1035 635 306 273 225 86 52 89
0 0 0 0 0 0 0 0 0 0 0 0 0 0 0 5 37 514 1253 1202 1380 1340 1352 1193 1093 958 1059 921 1014 1294 1660 1319 1224 1268 1156 1108 672 365 261 248 8 47 10 10
0 0 0 0 0 0 0 0 0 0 0 0 0 0 0 10 462 1329 1448 1154 1181 1373 1308 1342 1442 1110 1231 1158 973 866 858 1054 959 641 629 611 502 321 255 60 46 18 12 1
0 0 0 0 0 0 0 0 0 0 0 0 0 0 12 448 930 1272 1559 1520 1327 1424 1384 1448 1219 1426 1027 984 812 944 782 472 254 244 58 285 226 82 57 76 73 16 2 3
0 0 0 0 0 0 0 0 0 0 0 0 0 0 0 244 1000 567 1017 1152 1238 1708 1867 1723 1303 1728 1284 720 728 493 566 400 264 78 54 123 112 48 37 128 54 4 1 0
0 0 0 0 0 0 0 0 0 0 0 0 0 0 18 183 313 689 516 671 786 1462 1933 1890 1650 1601 1632 1179 941 665 515 431 321 172 243 143 171 221 109 22 3 1 4 3
0 0 0 0 0 0 0 0 0 0 5 0 1 58 152 242 751 915 739 818 1123 1561 2120 2064 1896 1666 1614 1343 1058 751 576 525 346 375 294 193 64 8 0 0 1 6 4 11
0 0 0 0 0 0 0 0 0 3 0 0 3 82 184 452 809 995 801 960 1312 2010 2158 1977 1854 1665 1486 1307 1146 1013 757 428 278 184 73 38 31 1 12 65 69 76 132 163
0 0 0 0 0 6 0 0 0 0 0 6 47 93 191 372 505 490 712 826 1280 2027 2350 2038 1769 1883 1585 1267 1320 1010 710 473 297 164 67 65 106 71 43 149 140 102 132 70
0 0 0 0 0 0 0 0 0 0 2 6 60 123 197 351 532 633 799 923 1008 1853 2337 2238 1864 1882 1636 1515 956 649 656 479 270 157 97 49 37 39 53 64 70 67 39 26
0 0 0 0 0 0 0 0 1 2 9 43 103 110 198 585 830 795 709 1242 833 1660 2215 2194 2151 2044 1988 1609 823 270 463 430 205 180 125 173 145 118 84 51 34 28 42 24
0 0 0 0 0 0 0 0 2 0 1 24 100 101 183 275 340 363 531 1129 1368 1228 1954 2400 2163 1882 1858 1825 945 467 506 582 464 319 262 137 74 106 57 52 27 0 1 6
CIN
-11 0 -1 -37 -12 -25 -3 -12 -13 -2 -1 -6 0 0 0 -2 -23 -12 -12 -18 -17 -13 0 0 -8 -5 -2 -14 -39 -51 -150 -113 -136 -110 -48 -15 -17 -11 -16 -17 -13 -5 0 0
-6 0 -8 -32 -18 -9 -2 -3 0 -1 -13 -15 -4 -6 -13 -8 -18 -15 -4 -10 -13 -5 -9 -9 -6 -11 -10 -9 -32 -29 -81 -85 -79 -73 -40 -28 -10 -2 -1 0 -1 -11 -5 -1
-1 -12 -32 -26 -7 -3 0 -4 -3 -1 -5 -31 -47 -2 -13 -20 -19 -30 -23 -19 -16 -4 -4 -8 -17 -21 -18 -18 -31 -51 -42 -54 -50 -49 -44 -20 -1 -1 0 0 0 -1 -13 -19
-7 -36 -31 -19 -13 -11 0 -17 -10 -12 -2 0 -36 0 -1 -10 -27 -55 -61 -53 -37 -21 -23 -8 -11 -13 -20 -24 -32 -47 -65 -52 -39 -32 -13 -1 -1 0 0 0 -5 0 -15 -2
-10 -12 -12 -5 -15 -29 -5 -22 -15 -16 0 -2 -1 0 0 -17 -19 -21 -39 -53 -57 -55 -30 -23 -14 -23 -31 -25 -26 -54 -101 -66 -18 -35 -22 -21 -17 0 0 -2 -7 -48 -55 -68
-11 -32 -24 -5 -23 -26 -30 -10 -2 -9 -7 0 -6 -16 0 0 -23 -26 -33 -78 -88 -61 -50 -24 -4 -1 -7 -61 -74 -78 -97 -94 -59 -24 -52 -6 0 -1 -3 0 -14 -7 -8 -18
-2 -1 -15 -34 -4 -16 -16 0 0 0 0 0 0 0 0 0 -30 -59 -92 -100 -124 -100 -72 -41 -17 -2 -30 -90 -171 -191 -128 -145 -96 -62 -14 -22 -2 -3 0 0 -9 -9 -9 -28
0 -1 -8 -22 -4 -2 0 0 -5 0 0 0 -18 0 0 -1 -38 -80 -112 -139 -175 -151 -98 -58 -10 -1 -23 -95 -133 -109 -105 -114 -156 -174 -24 -1 -43 -68 -68 -47 -23 -5 -30 -8
-13 0 -17 -26 -24 -13 -9 -1 -14 0 0 0 0 0 0 -9 0 -35 -62 -107 -120 -148 -146 -98 -79 -77 -44 -162 -138 -125 -97 -64 -78 -31 -17 -29 -54 -2 -3 -6 -2 -51 -67 -41
-7 -3 -12 -16 -41 -41 -19 -36 0 0 0 0 0 0 0 0 0 0 0 -44 -82 -140 -159 -144 -124 -111 -100 -88 -101 -143 -145 -49 -28 -36 -124 -138 -78 -47 -11 -66 -25 -52 -38 0
0 0 0 -35 -28 0 -29 -21 0 0 0 0 0 0 0 0 0 0 0 -35 -58 -106 -148 -170 -181 -170 -161 -201 -128 -71 -73 -46 -20 -112 -30 -120 -180 -73 -113 -16 -80 -92 -109 -108
0 0 0 0 0 0 0 0 0 0 0 0 0 0 0 0 0 0 0 -39 -52 -81 -190 -229 -224 -176 -176 -223 -255 -149 -69 -37 -83 -76 -82 -129 -102 -69 -85 -5 -41 -61 -106 -124
0 0 0 0 0 0 0 0 0 0 0 0 0 0 0 0 0 0 0 -37 -81 -127 -201 -193 -180 -144 -141 -217 -171 -145 -176 -173 -109 -86 -116 -141 -116 -98 -55 -31 -96 -37 -21 -27
0 0 0 0 0 0 0 0 0 0 0 0 0 0 0 0 0 0 -31 -34 -110 -113 -159 -144 -189 -231 -240 -196 -183 -155 -138 -126 -143 -149 -125 -111 -72 -12 -15 -89 -60 -14 -73 -122
0 0 0 0 0 0 0 0 0 0 0 0 0 0 0 0 -16 -16 -34 -62 -68 -141 -89 -96 -117 -158 -250 -181 -140 -76 -124 -112 -114 -91 -76 -30 -7 -40 -83 -85 -105 -104 -181 -114
0 0 0 0 0 0 0 0 0 0 0 0 0 0 0 -7 -27 -5 -26 -51 -30 -49 -52 -90 -122 -155 -148 -209 -172 -122 -53 -101 -101 -75 -72 -55 -83 -102 -121 -113 -252 -144 0 0
0 0 0 0 0 0 0 0 0 0 0 0 0 0 0 -3 -5 -15 -25 -48 -33 -9 -30 -33 -28 -107 -100 -111 -135 -158 -150 -114 -101 -150 -154 -152 -137 -122 -103 -188 -204 0 0 -27
0 0 0 0 0 0 0 0 0 0 0 0 0 0 0 -7 -20 -18 -30 -35 -39 -23 -33 -38 -56 -41 -101 -108 -137 -80 -93 -187 -245 -205 -247 -204 -209 -181 -195 -185 -150 0 -57 0
0 0 0 0 0 0 0 0 0 0 0 0 0 0 0 -5 -14 -5 -48 -55 -35 -3 -1 -16 -61 -10 -27 -89 -88 -121 -78 -154 -151 -163 -207 -225 -209 -205 -181 -64 -131 0 0 0
0 0 0 0 0 0 0 0 0 0 0 0 0 0 -6 -9 0 -8 -64 -62 -66 -34 -4 -3 -18 -7 -2 -10 -35 -43 -83 -75 -73 -147 -101 -148 -96 -56 -89 -199 0 0 0 0
0 0 0 0 0 0 0 0 0 0 -6 0 -3 -17 -12 -6 -8 -31 -45 -40 -47 -33 -7 0 -1 -1 -1 -8 -15 -38 -33 -34 -60 -66 -56 -72 -65 0 0 0 0 0 0 0
0 0 0 0 0 0 0 0 0 -74 -5 0 -1 -7 -34 -13 -12 -25 -30 -43 -37 -7 0 0 0 0 0 0 -2 -10 -15 -27 -56 -74 -84 -89 -86 0 -27 -84 -82 -37 -44 -40
0 0 0 0 0 -81 0 0 0 0 0 -2 -5 -9 -12 -15 -14 -31 -24 -41 -41 -3 0 0 0 0 0 0 0 -4 -7 -9 -28 -45 -54 -46 -28 -79 -4 -33 -48 -80 -33 0
0 0 0 0 0 0 0 0 0 0 -1 -1 -5 -11 -10 -14 -15 -29 -36 -60 -70 -12 0 0 0 0 0 0 -4 -4 -5 -5 -9 -15 -12 -38 -19 0 -11 0 0 0 0 0
0 0 0 0 0 0 0 0 0 0 -1 -9 -9 -8 -9 -15 -24 -20 -37 -40 -74 -18 0 0 0 0 0 0 -3 -25 -12 -6 -5 -1 -5 -6 -11 -12 -31 0 0 0 0 -2
0 0 0 0 0 0 0 0 0 0 0 -1 -8 -6 -9 -23 -33 -28 -39 -44 -45 -29 -2 0 -3 -1 0 0 -3 -11 -7 -3 0 0 0 -4 -7 -15 0 0 0 0 -3 -12
Wind_Speed
4 15 2 1 6 6 10 12 14 6 2 8 13 10 9 13 17 21 21 21 18 18 17 18 15 12 9 13 10 8 nan 11 nan nan 13 15 15 16 16 15 16 17 16 17
14 9 2 3 6 13 13 14 8 8 9 12 12 18 13 9 17 20 21 22 23 19 19 20 21 15 13 11 13 13 11 14 14 16 16 16 16 15 18 19 21 21 21 21
15 6 1 9 9 10 5 9 5 8 12 12 10 7 8 3 7 11 15 18 23 24 23 26 28 26 17 14 13 13 17 19 16 16 19 21 21 23 24 25 26 25 25 23
8 3 3 5 8 9 4 1 4 7 8 5 3 3 6 8 4 9 12 17 20 24 26 27 31 29 24 17 15 11 15 18 22 21 22 22 23 24 27 26 33 34 35 36
9 2 3 4 6 2 7 4 2 1 4 7 11 6 22 16 nan 14 12 14 17 22 24 27 28 29 26 23 15 17 15 17 19 22 20 27 25 28 28 34 34 33 35 37
5 5 1 4 6 6 8 9 11 9 nan nan nan nan nan nan nan 19 15 15 12 16 18 19 23 28 26 25 23 21 20 19 20 22 22 23 27 26 35 31 32 30 34 37
5 10 7 9 12 13 13 15 nan nan nan nan nan nan nan nan nan 21 17 15 13 13 11 13 14 17 26 25 24 33 24 24 28 18 28 30 32 28 32 35 34 34 37 39
7 13 12 15 9 2 7 6 nan nan nan nan nan nan nan nan 22 23 20 19 17 15 12 15 22 20 23 20 29 25 30 34 41 39 45 33 42 39 39 43 43 38 43 nan
nan nan 9 9 8 9 15 14 nan nan nan nan nan nan nan nan nan nan 23 23 21 20 21 23 21 20 17 23 21 27 32 33 37 31 40 34 41 43 43 nan nan nan nan nan
nan nan nan 14 9 12 12 nan nan nan nan nan nan nan nan nan nan nan nan 25 25 24 23 26 20 18 21 21 23 27 40 17 21 33 36 nan nan 45 nan nan nan nan nan nan
nan nan nan nan nan nan nan nan nan nan nan nan nan nan nan nan nan nan nan nan 25 24 25 27 23 22 20 19 17 23 30 25 27 36 36 nan nan 32 27 30 26 nan nan nan
nan nan nan nan nan nan nan nan nan nan nan nan nan nan nan nan nan nan nan 21 24 28 27 28 28 28 28 22 23 24 29 27 31 36 40 41 41 33 41 28 29 33 nan nan
nan nan nan nan nan nan nan nan nan nan nan nan nan nan nan nan nan nan nan 20 27 27 30 30 27 31 29 26 22 20 23 29 33 36 41 44 46 40 40 34 32 nan 27 24
nan nan nan nan nan nan nan nan nan nan nan nan nan nan nan nan nan nan 22 20 31 30 26 32 34 32 33 32 32 33 34 36 37 38 39 42 44 45 40 39 31 30 30 26
nan nan nan nan nan nan nan nan nan nan nan nan nan nan nan nan nan 25 25 27 33 28 22 30 36 37 38 36 37 35 39 42 44 44 45 46 48 43 35 37 40 nan nan nan
nan nan nan nan nan nan nan nan nan nan nan nan nan nan nan nan nan 28 31 30 28 24 25 30 37 40 40 39 41 43 43 45 47 48 46 47 48 44 43 43 nan nan nan nan
nan nan nan nan nan nan nan nan nan nan nan nan nan nan nan nan 29 33 33 31 24 25 27 30 33 39 40 44 44 47 48 49 50 49 50 51 44 42 40 nan nan nan nan nan
nan nan nan nan nan nan nan nan nan nan nan nan nan nan nan 34 33 35 38 34 30 29 30 28 29 32 35 41 45 50 53 55 57 52 nan 45 34 nan nan nan nan nan nan nan
nan nan nan nan nan nan nan nan nan nan nan nan nan nan nan 40 36 33 44 38 28 28 30 33 31 25 32 38 44 51 47 41 44 nan nan 34 30 nan nan 17 nan nan nan nan
nan nan nan nan nan nan nan nan nan nan nan nan nan nan nan 39 37 50 42 33 29 28 30 31 36 29 27 27 28 25 30 34 38 27 25 23 22 20 18 nan nan nan nan nan
nan nan nan nan nan nan nan nan nan nan nan nan nan nan 40 40 41 36 27 27 28 31 31 27 31 26 27 24 23 22 22 23 16 17 20 19 nan nan nan nan nan nan nan nan
nan nan nan nan nan nan nan nan nan nan nan nan nan nan 38 34 35 31 24 25 25 30 30 28 32 26 23 21 21 20 21 21 20 17 nan nan nan nan nan nan nan nan 17 14
nan nan nan nan nan nan nan nan nan nan nan nan nan nan 32 25 25 28 20 24 26 29 27 20 14 17 15 18 21 23 22 22 20 19 nan nan 13 nan nan 18 19 18 17 nan
nan nan nan nan nan nan nan nan nan nan nan nan nan 29 28 23 22 21 17 21 27 20 7 8 11 17 18 18 17 21 25 22 19 19 nan nan nan nan nan nan nan nan nan nan
nan nan nan nan nan nan nan nan nan nan nan nan 30 28 23 20 18 15 23 22 34 8 7 10 12 14 17 17 19 21 22 20 19 18 16 15 16 20 nan nan nan nan nan nan
nan nan nan nan nan nan nan nan nan nan nan nan 25 22 26 20 16 15 25 19 14 6 8 11 13 15 17 20 18 17 21 21 18 17 16 18 nan 22 nan nan nan nan nan nan
Wind_Direction
66 83 170 206 133 61 69 95 76 67 324 125 98 108 108 0 27 17 10 357 10 20 10 358 349 341 325 300 292 283 nan 253 nan nan 226 220 213 212 217 224 222 226 232 246
69 116 136 113 121 103 82 84 97 53 81 114 111 114 107 41 10 13 15 15 2 358 354 352 348 345 329 320 302 286 274 274 258 235 227 234 237 237 237 237 237 241 244 246
117 190 91 72 67 98 352 135 129 102 92 50 110 69 246 292 356 17 31 16 10 3 350 342 344 346 336 321 314 311 288 275 266 259 248 238 230 228 236 239 242 248 249 253
149 214 68 63 43 71 322 63 110 123 108 174 223 146 288 257 296 351 5 6 4 1 352 339 334 336 333 322 299 307 293 283 275 270 259 259 246 246 252 250 252 253 249 248
240 203 49 66 271 349 269 325 288 301 11 14 300 84 267 284 nan 277 311 342 349 347 347 341 333 322 323 313 303 295 282 296 284 273 257 259 256 250 249 256 261 260 258 258
145 247 322 297 324 353 334 34 27 3 nan nan nan nan nan nan nan 246 255 276 307 335 341 336 324 316 310 295 283 280 275 279 278 273 268 248 250 251 255 255 258 261 266 268
342 1 349 35 31 357 24 42 nan nan nan nan nan nan nan nan nan 247 241 239 266 302 320 329 334 317 299 298 281 278 279 272 263 277 270 256 253 258 266 269 264 263 265 266
113 341 360 347 31 139 16 78 nan nan nan nan nan nan nan nan 268 260 257 251 254 270 284 308 319 311 314 303 280 279 276 282 270 264 253 252 258 261 259 261 264 259 261 nan
nan nan 304 357 334 28 316 17 nan nan nan nan nan nan nan nan nan nan 240 243 257 263 271 285 296 302 305 316 303 301 277 274 278 298 264 259 250 261 263 nan nan nan nan nan
nan nan nan 297 356 360 25 nan nan nan nan nan nan nan nan nan nan nan nan 234 247 255 266 281 296 301 312 301 301 309 280 270 313 310 294 nan nan 269 nan nan nan nan nan nan
nan nan nan nan nan nan nan nan nan nan nan nan nan nan nan nan nan nan nan nan 251 255 252 256 264 273 279 286 297 305 307 327 311 309 296 nan nan 301 314 310 334 nan nan nan
nan nan nan nan nan nan nan nan nan nan nan nan nan nan nan nan nan nan nan 282 265 255 250 247 250 258 260 260 279 295 286 289 299 305 303 302 314 308 326 331 343 345 nan nan
nan nan nan nan nan nan nan nan nan nan nan nan nan nan nan nan nan nan nan 296 296 276 265 253 249 259 260 254 256 274 286 299 303 295 287 292 312 312 313 321 339 nan 317 308
nan nan nan nan nan nan nan nan nan nan nan nan nan nan nan nan nan nan 283 296 307 301 275 261 257 252 255 255 266 262 270 281 294 295 298 296 293 299 307 313 317 312 297 293
nan nan nan nan nan nan nan nan nan nan nan nan nan nan nan nan nan 301 297 298 306 311 278 262 257 255 260 262 264 259 263 273 279 280 285 287 290 296 301 303 308 nan nan nan
nan nan nan nan nan nan nan nan nan nan nan nan nan nan nan nan nan 295 297 304 305 317 288 265 260 256 261 271 269 267 274 276 278 280 288 291 294 298 301 298 nan nan nan nan
nan nan nan nan nan nan nan nan nan nan nan nan nan nan nan nan 291 290 289 290 283 287 285 273 268 266 264 268 272 269 271 272 275 281 284 286 286 300 300 nan nan nan nan nan
nan nan nan nan nan nan nan nan nan nan nan nan nan nan nan 296 293 290 289 283 285 289 289 285 277 275 272 268 267 262 269 270 270 274 nan 290 291 nan nan nan nan nan nan nan
nan nan nan nan nan nan nan nan nan nan nan nan nan nan nan 293 289 300 288 286 283 283 283 280 279 276 278 281 284 269 280 286 288 nan nan 277 278 nan nan 298 nan nan nan nan
nan nan nan nan nan nan nan nan nan nan nan nan nan nan nan 289 290 288 289 278 276 292 284 280 285 283 294 292 292 303 296 289 285 274 290 271 282 290 288 nan nan nan nan nan
nan nan nan nan nan nan nan nan nan nan nan nan nan nan 300 295 295 288 286 272 274 297 289 292 288 286 295 296 303 296 295 305 290 272 273 272 nan nan nan nan nan nan nan nan
nan nan nan nan nan nan nan nan nan nan nan nan nan nan 302 298 300 301 291 277 283 291 295 281 291 284 289 291 297 294 292 297 291 289 nan nan nan nan nan nan nan nan 309 307
nan nan nan nan nan nan nan nan nan nan nan nan nan nan 308 303 305 300 296 288 297 304 288 275 281 284 299 312 308 298 288 288 289 296 nan nan 297 nan nan 317 317 311 318 nan
nan nan nan nan nan nan nan nan nan nan nan nan nan 310 311 310 312 318 302 303 305 300 252 268 284 308 314 315 314 305 294 293 297 299 nan nan nan nan nan nan nan nan nan nan
nan nan nan nan nan nan nan nan nan nan nan nan 318 309 307 311 311 312 308 304 319 228 258 290 307 314 311 308 311 300 299 302 302 297 294 298 300 310 nan nan nan nan nan nan
nan nan nan nan nan nan nan nan nan nan nan nan 308 302 308 311 301 331 329 323 298 246 287 303 319 318 312 311 307 306 300 305 301 297 293 293 nan 302 nan nan nan nan nan nan